Location: El Chorro
(10.0985°N, 67.3542°W)
Time: 19:01:53
(UTC+00:00)

YAOGAN 1 - Pass Details

Date: 15 November 2025
Orbit: 605 x 607 km, 97.8° (Epoch: 06 December)

Event Time Altitude Azimuth Distance (km) Brightness Sun altitude
Rises 22:20:34 0° 130° (SE) 2,856 5.6 -4.7°
Reaches altitude 10° 22:23:59 10° 100° (E) 1,951 4.6 -5.5°
Maximum altitude 22:25:42 12° 75° (ENE) 1,804 4.3 -5.9°
Drops below altitude 10° 22:27:26 10° 51° (NE) 1,950 4.5 -6.3°
Sets 22:30:50 0° 21° (NNE) 2,852 5.6 -7.1°
